Location: Unspecified
(0.0000°N, 0.0000°E)
Time: 07:21:50
(UTC+00:00)

Transit 4A - Pass Details

Date: 06 October 2023
Orbit: 864 x 979 km, 66.8° (Epoch: 05 December)

Event Time Altitude Azimuth Distance (km) Brightness Sun altitude
Rises 09:19:41 0° 230° (SW) 3,562 10.7 52.6°
Reaches altitude 10° 09:22:55 10° 247° (WSW) 2,638 10.1 53.4°
Maximum altitude 09:27:09 19° 291° (WNW) 2,065 9.6 54.4°
Drops below altitude 10° 09:31:28 10° 335° (NNW) 2,682 10.2 55.5°
Sets 09:34:49 0° 352° (N) 3,640 10.9 56.3°
